BMCB-10 Weather Reports


time (UTC)temp
F
wind
direction
speed
knots
gust
knots
rain 1hr
in
rain 24hr
in
rain mn
in
humidity
%
barometer
mb
20260506013012 48 0 0.0 0.0 0.06 0.38 0.17 10 1007.3
20260506012012 48 0 0.0 0.0 0.06 0.37 0.17 10 1007.3
20260506011012 48 0 0.0 0.0 0.07 0.36 0.16 10 1007.3
20260506005012 49 0 0.0 0.0 0.06 0.34 0.13 10 1007.4
20260506004012 49 0 0.0 0.0 0.06 0.33 0.13 10 1007.5
20260506003013 49 0 0.0 0.0 0.07 0.32 0.12 10 1007.5
20260506002012 49 0 0.0 0.0 0.07 0.31 0.11 10 1007.6
20260506001012 49 0 0.0 0.0 0.07 0.31 0.10 10 1007.7
20260506000014 49 0 0.0 0.0 0.06 0.29 0.09 10 1007.8
20260505235015 49 0 0.0 0.0 0.06 0.28 0.08 10 1007.8
20260505234014 49 0 0.0 0.0 0.06 0.28 0.07 10 1007.9
20260505233014 49 0 0.0 0.0 0.05 0.27 0.06 10 1007.9
20260505232014 49 0 0.0 0.0 0.04 0.25 0.05 10 1008.0
20260505231014 49 0 0.0 0.0 0.03 0.24 0.04 10 1008.0
20260505230016 49 0 0.0 0.0 0.03 0.24 0.03 10 1008.1
20260505225015 49 0 0.0 0.0 0.02 0.23 0.02 10 1008.2
20260505224014 49 0 0.0 0.0 0.03 0.23 0.02 10 1008.2
20260505223015 49 0 0.0 0.0 0.03 0.22 0.02 10 1008.2
20260505222014 49 0 0.0 0.0 0.04 0.22 0.02 10 1008.2
20260505221014 49 0 0.0 0.0 0.04 0.21 0.01 10 1008.3
20260505220013 49 0 0.0 0.0 0.05 0.21 0.01 10 1008.3
20260505215015 49 0 0.0 0.0 0.05 0.20 0.20 10 1008.4
20260505214015 49 0 0.0 0.0 0.06 0.20 0.20 10 1008.4
20260505213016 49 0 0.0 0.0 0.06 0.20 0.20 10 1008.5
20260505212016 49 0 0.0 0.0 0.06 0.19 0.19 10 1008.5
20260505211014 50 0 0.0 0.0 0.05 0.18 0.18 10 1008.6
20260505210015 49 0 0.0 0.0 0.05 0.17 0.17 10 1008.6
20260505205015 50 0 0.0 0.0 0.05 0.17 0.17 10 1008.6
20260505204014 50 0 0.0 0.0 0.05 0.16 0.16 10 1008.7
20260505202016 50 0 0.0 0.0 0.05 0.14 0.14 10 1008.6
20260505201021 50 0 0.0 0.0 0.04 0.13 0.13 10 1008.5
20260505195015 50 0 0.0 0.0 0.05 0.13 0.13 10 1008.5
20260505194015 50 0 0.0 0.0 0.04 0.12 0.12 10 1008.4
20260505193014 50 0 0.0 0.0 0.05 0.11 0.11 10 1008.4
20260505192015 50 0 0.0 0.0 0.05 0.10 0.10 10 1008.4
20260505191015 50 0 0.0 0.0 0.06 0.09 0.09 10 1008.3
20260505190014 50 0 0.0 0.0 0.06 0.09 0.09 10 1008.3
20260505185014 50 0 0.0 0.0 0.06 0.09 0.09 10 1008.3
20260505184014 50 0 0.0 0.0 0.06 0.08 0.08 10 1008.3
20260505183013 50 0 0.0 0.0 0.06 0.08 0.08 10 1008.3
20260505182013 50 0 0.0 0.0 0.04 0.06 0.06 10 1008.3
20260505181013 50 0 0.0 0.0 0.03 0.06 0.06 10 1008.3
20260505180015 51 0 0.0 0.0 0.02 0.04 0.04 10 1008.4
20260505175014 51 0 0.0 0.0 0.01 0.03 0.03 10 1008.4
20260505174014 51 0 0.0 0.0 0.00 0.02 0.02 10 1008.4
20260505173014 51 0 0.0 0.0 0.00 0.02 0.02 99 1008.4
20260505172013 51 0 0.0 0.0 0.00 0.02 0.02 99 1008.5
20260505171015 51 0 0.0 0.0 0.00 0.02 0.02 99 1008.5
20260505170014 51 0 0.0 0.0 0.00 0.02 0.02 99 1008.5
20260505165013 51 0 0.0 0.0 0.00 0.02 0.02 99 1008.5
20260505164014 52 0 0.0 0.0 0.00 0.02 0.02 98 1008.5
20260505163013 52 0 0.0 0.0 0.00 0.02 0.02 98 1008.5
20260505162013 52 0 0.0 0.0 0.00 0.02 0.02 98 1008.5
20260505161013 52 0 0.0 0.0 0.00 0.02 0.02 98 1008.6
20260505153013 52 0 0.0 0.0 0.00 0.03 0.02 98 1008.6
20260505152014 53 0 0.0 0.0 0.00 0.04 0.02 98 1008.7
20260505151013 53 0 0.0 0.0 0.00 0.05 0.02 99 1008.7
20260505125013 53 0 0.0 0.0 0.01 0.13 0.02 10 1009.3
20260505124013 53 0 0.0 0.0 0.01 0.13 0.02 10 1009.3
20260505123013 53 0 0.0 0.0 0.01 0.13 0.02 10 1009.3
20260505122013 53 0 0.0 0.0 0.01 0.13 0.02 10 1009.4
20260505121012 54 0 0.0 0.0 0.01 0.13 0.02 10 1009.4
20260505115012 54 0 0.0 0.0 0.00 0.12 0.01 99 1009.4
20260505114012 54 0 0.0 0.0 0.00 0.12 0.01 99 1009.4
20260505113012 54 0 0.0 0.0 0.00 0.12 0.01 99 1009.5
20260505112013 54 0 0.0 0.0 0.00 0.12 0.01 99 1009.5
20260505102014 55 0 0.0 0.0 0.01 0.12 0.01 10 1009.5
20260505101013 55 0 0.0 0.0 0.01 0.12 0.01 10 1009.5
20260505100013 56 0 0.0 0.0 0.01 0.12 0.01 10 1009.5
20260505095013 56 0 0.0 0.0 0.01 0.12 0.01 10 1009.4
20260505094013 57 0 0.0 0.0 0.01 0.12 0.01 10 1009.4
20260505093013 57 0 0.0 0.0 0.01 0.12 0.01 10 1009.4
20260505092013 57 0 0.0 0.0 0.01 0.12 0.01 10 1009.5
20260505091013 56 0 0.0 0.0 0.00 0.11 0.00 10 1009.6
20260505090013 56 0 0.0 0.0 0.00 0.11 0.00 10 1009.6
20260505084013 56 0 0.0 0.0 0.00 0.11 0.00 10 1009.7
20260505083013 56 0 0.0 0.0 0.00 0.11 0.00 10 1009.6
20260505082013 56 0 0.0 0.0 0.00 0.11 0.00 10 1009.6
20260505081012 56 0 0.0 0.0 0.00 0.11 0.00 10 1009.7
20260505080013 56 0 0.0 0.0 0.00 0.11 0.00 10 1009.7
20260505075013 56 0 0.0 0.0 0.00 0.11 0.00 10 1009.8
20260505072013 55 0 0.0 0.0 0.00 0.11 0.00 10 1009.8
20260505071013 55 0 0.0 0.0 0.00 0.11 0.00 10 1009.9
20260505070013 55 0 0.0 0.0 0.00 0.11 0.00 10 1009.9
20260505065012 55 0 0.0 0.0 0.00 0.11 0.00 10 1009.9
20260505063013 54 0 0.0 0.0 0.00 0.11 0.00 10 1010.0
20260505062013 54 0 0.0 0.0 0.00 0.11 0.00 10 1010.1
20260505061013 54 0 0.0 0.0 0.00 0.11 0.00 10 1010.1
20260505060013 54 0 0.0 0.0 0.00 0.11 0.00 10 1010.1
20260505054013 53 0 0.0 0.0 0.00 0.11 0.00 10 1010.1
20260505053013 53 0 0.0 0.0 0.00 0.12 0.00 10 1010.1
20260505052014 53 0 0.0 0.0 0.00 0.12 0.00 10 1010.1
20260505051013 53 0 0.0 0.0 0.00 0.12 0.00 10 1010.0
20260505041013 52 0 0.0 0.0 0.00 0.12 0.00 10 1010.0
20260505040013 52 0 0.0 0.0 0.00 0.12 0.00 10 1010.1
20260505035013 52 0 0.0 0.0 0.00 0.12 0.00 10 1010.2
20260505034013 52 0 0.0 0.0 0.00 0.12 0.00 10 1010.2
20260505033013 52 0 0.0 0.0 0.00 0.12 0.00 10 1010.2
20260505032013 53 0 0.0 0.0 0.00 0.12 0.00 10 1010.4
20260505031013 52 0 0.0 0.0 0.00 0.12 0.00 10 1010.4
20260505030013 52 0 0.0 0.0 0.00 0.12 0.00 10 1010.5
20260505025013 52 0 0.0 0.0 0.00 0.12 0.00 10 1010.6
20260505024013 53 0 0.0 0.0 0.00 0.12 0.00 10 1010.6
20260505023013 53 0 0.0 0.0 0.00 0.12 0.00 10 1010.7
20260505022013 53 0 0.0 0.0 0.00 0.12 0.00 10 1010.7
20260505021013 53 0 0.0 0.0 0.00 0.12 0.00 10 1010.8
20260505020013 53 0 0.0 0.0 0.00 0.12 0.00 10 1010.8
20260505015014 53 0 0.0 0.0 0.00 0.12 0.00 10 1010.9
20260505014013 53 0 0.0 0.0 0.00 0.12 0.00 10 1010.9